| time (UTC) | temp C | wind direction | speed KPH | gust KPH | rain 1hr cm | rain 24hr cm | rain mn cm | humidity % | barometer mb |
| 20260906095515 | 22 | 113 | 4.8 | 11.3 | 0.00 | 0.00 | 0.00 | 88 | 1013.5 |
| 20260906095015 | 22 | 84 | 4.8 | 11.3 | 0.00 | 0.00 | 0.00 | 87 | 1013.4 |
| 20260906094536 | 22 | 76 | 1.6 | 14.5 | 0.00 | 0.00 | 0.00 | 87 | 1013.4 |
| 20260906094016 | 23 | 73 | 4.8 | 14.5 | 0.00 | 0.00 | 0.00 | 87 | 1013.3 |
| 20260906093503 | 23 | 61 | 3.2 | 14.5 | 0.00 | 0.00 | 0.00 | 87 | 1013.3 |
| 20260906093011 | 23 | 96 | 8.0 | 12.9 | 0.00 | 0.00 | 0.00 | 87 | 1013.3 |
| 20260906092510 | 23 | 84 | 6.4 | 12.9 | 0.00 | 0.00 | 0.00 | 86 | 1013.3 |
| 20260906092011 | 23 | 32 | 3.2 | 9.7 | 0.00 | 0.00 | 0.00 | 86 | 1013.3 |
| 20260906091515 | 23 | 81 | 3.2 | 9.7 | 0.00 | 0.00 | 0.00 | 86 | 1013.2 |
| 20260906091011 | 23 | 64 | 1.6 | 6.4 | 0.00 | 0.00 | 0.00 | 86 | 1013.1 |
| 20260906090512 | 23 | 92 | 3.2 | 6.4 | 0.00 | 0.03 | 0.00 | 86 | 1013.2 |
| 20260906090025 | 23 | 98 | 1.6 | 4.8 | 0.00 | 0.03 | 0.00 | 86 | 1013.2 |
| 20260906085517 | 23 | 32 | 0.0 | 6.4 | 0.00 | 0.03 | 0.00 | 86 | 1013.1 |
| 20260906085014 | 23 | 56 | 1.6 | 12.9 | 0.00 | 0.03 | 0.00 | 86 | 1013.1 |
| 20260906084543 | 23 | 80 | 6.4 | 12.9 | 0.00 | 0.03 | 0.00 | 86 | 1013.2 |
| 20260906084017 | 23 | 68 | 0.0 | 6.4 | 0.00 | 0.03 | 0.00 | 86 | 1013.2 |
| 20260906083517 | 23 | 83 | 3.2 | 6.4 | 0.00 | 0.03 | 0.00 | 86 | 1013.0 |
| 20260906083035 | 23 | 84 | 1.6 | 4.8 | 0.00 | 0.03 | 0.00 | 86 | 1013.1 |
| 20260906082518 | 23 | 103 | 0.0 | 6.4 | 0.00 | 0.03 | 0.00 | 86 | 1013.2 |
| 20260906082008 | 23 | 78 | 1.6 | 6.4 | 0.00 | 0.03 | 0.00 | 86 | 1013.0 |
| 20260906081514 | 23 | 55 | 1.6 | 6.4 | 0.00 | 0.03 | 0.00 | 86 | 1013.1 |
| 20260906081007 | 23 | 71 | 1.6 | 6.4 | 0.00 | 0.28 | 0.00 | 86 | 1013.2 |
| 20260906080512 | 23 | 94 | 0.0 | 6.4 | 0.00 | 0.56 | 0.00 | 86 | 1013.1 |
| 20260906080004 | 23 | 46 | 1.6 | 6.4 | 0.00 | 0.56 | 0.00 | 86 | 1013.1 |
| 20260906075505 | 23 | 63 | 1.6 | 6.4 | 0.00 | 0.56 | 0.00 | 86 | 1013.1 |
| 20260906075003 | 23 | 72 | 1.6 | 4.8 | 0.00 | 0.56 | 0.00 | 86 | 1013.1 |
| 20260906074504 | 23 | 76 | 0.0 | 3.2 | 0.00 | 0.56 | 0.00 | 86 | 1013.1 |
| 20260906074003 | 23 | 80 | 0.0 | 3.2 | 0.00 | 0.56 | 0.00 | 86 | 1013.0 |
| 20260906073503 | 23 | 80 | 0.0 | 4.8 | 0.00 | 0.56 | 0.00 | 85 | 1013.1 |
| 20260906073004 | 23 | 81 | 0.0 | 6.4 | 0.00 | 0.56 | 0.00 | 85 | 1013.1 |
| 20260906072504 | 23 | 120 | 1.6 | 6.4 | 0.00 | 0.56 | 0.00 | 85 | 1013.1 |
| 20260906072005 | 23 | 85 | 3.2 | 6.4 | 0.00 | 0.56 | 0.00 | 85 | 1013.0 |
| 20260906071509 | 23 | 90 | 0.0 | 3.2 | 0.00 | 0.56 | 0.00 | 85 | 1013.1 |
| 20260906071007 | 24 | 81 | 0.0 | 8.0 | 0.00 | 0.56 | 0.00 | 85 | 1013.2 |
| 20260906070509 | 23 | 80 | 0.0 | 8.0 | 0.00 | 0.56 | 0.00 | 85 | 1013.4 |
| 20260906070013 | 24 | 70 | 0.0 | 4.8 | 0.00 | 0.56 | 0.00 | 84 | 1013.4 |
| 20260906065516 | 24 | 76 | 0.0 | 0.0 | 0.00 | 0.56 | 0.00 | 84 | 1013.3 |
| 20260906065011 | 24 | 76 | 0.0 | 0.0 | 0.00 | 0.56 | 0.00 | 84 | 1013.3 |
| 20260906064503 | 24 | 76 | 0.0 | 0.0 | 0.00 | 0.56 | 0.00 | 84 | 1013.2 |
| 20260906064003 | 24 | 76 | 0.0 | 6.4 | 0.00 | 0.56 | 0.00 | 84 | 1013.2 |
| 20260906063503 | 24 | 76 | 0.0 | 9.7 | 0.00 | 0.56 | 0.00 | 83 | 1013.1 |
| 20260906063004 | 24 | 98 | 4.8 | 9.7 | 0.00 | 0.56 | 0.00 | 83 | 1013.1 |
| 20260906062503 | 24 | 77 | 0.0 | 6.4 | 0.00 | 0.56 | 0.00 | 83 | 1013.3 |
| 20260906062004 | 25 | 74 | 0.0 | 4.8 | 0.00 | 0.56 | 0.00 | 83 | 1013.3 |
| 20260906061507 | 25 | 86 | 0.0 | 3.2 | 0.00 | 0.56 | 0.00 | 83 | 1013.4 |
| 20260906061007 | 25 | 85 | 0.0 | 3.2 | 0.00 | 0.56 | 0.00 | 83 | 1013.6 |
| 20260906060509 | 25 | 85 | 0.0 | 3.2 | 0.00 | 0.56 | 0.00 | 82 | 1013.5 |
| 20260906060011 | 25 | 74 | 1.6 | 4.8 | 0.00 | 0.56 | 0.00 | 82 | 1013.5 |
| 20260906055509 | 25 | 87 | 0.0 | 4.8 | 0.00 | 0.56 | 0.00 | 82 | 1013.4 |
| 20260906055012 | 25 | 89 | 0.0 | 6.4 | 0.00 | 0.56 | 0.00 | 82 | 1013.4 |
| 20260906054518 | 25 | 115 | 1.6 | 6.4 | 0.00 | 0.56 | 0.00 | 82 | 1013.4 |
| 20260906054014 | 25 | 103 | 0.0 | 4.8 | 0.00 | 0.56 | 0.00 | 82 | 1013.4 |
| 20260906053513 | 25 | 104 | 0.0 | 4.8 | 0.00 | 0.56 | 0.00 | 82 | 1013.4 |
| 20260906053003 | 25 | 71 | 0.0 | 3.2 | 0.00 | 0.56 | 0.00 | 82 | 1013.3 |
| 20260906052504 | 25 | 88 | 1.6 | 3.2 | 0.00 | 0.56 | 0.00 | 81 | 1013.2 |
| 20260906052004 | 25 | 97 | 0.0 | 3.2 | 0.00 | 0.56 | 0.00 | 81 | 1013.2 |
| 20260906051507 | 25 | 121 | 0.0 | 3.2 | 0.00 | 0.56 | 0.00 | 81 | 1013.2 |
| 20260906051004 | 25 | 78 | 1.6 | 3.2 | 0.00 | 0.56 | 0.00 | 80 | 1013.2 |
| 20260906050508 | 25 | 44 | 0.0 | 3.2 | 0.00 | 0.56 | 0.00 | 80 | 1013.1 |
| 20260906050010 | 25 | 88 | 0.0 | 4.8 | 0.00 | 0.56 | 0.00 | 80 | 1013.1 |
| 20260906045507 | 25 | 115 | 0.0 | 4.8 | 0.00 | 0.56 | 0.00 | 79 | 1013.1 |
| 20260906045010 | 25 | 95 | 1.6 | 4.8 | 0.00 | 0.56 | 0.00 | 79 | 1013.1 |
| 20260906044516 | 25 | 80 | 1.6 | 3.2 | 0.00 | 0.56 | 0.00 | 79 | 1013.1 |
| 20260906044009 | 26 | 95 | 1.6 | 3.2 | 0.00 | 0.56 | 0.00 | 78 | 1013.2 |
| 20260906043516 | 26 | 74 | 0.0 | 6.4 | 0.00 | 0.56 | 0.00 | 78 | 1013.1 |
| 20260906043029 | 26 | 117 | 1.6 | 6.4 | 0.00 | 0.56 | 0.00 | 78 | 1013.1 |
| 20260906042516 | 26 | 72 | 1.6 | 4.8 | 0.00 | 0.56 | 0.00 | 78 | 1013.1 |
| 20260906042016 | 26 | 86 | 3.2 | 4.8 | 0.00 | 0.56 | 0.00 | 78 | 1013.0 |
| 20260906041503 | 26 | 180 | 0.0 | 6.4 | 0.00 | 0.56 | 0.00 | 78 | 1013.0 |
| 20260906041006 | 26 | 96 | 1.6 | 6.4 | 0.00 | 0.56 | 0.00 | 78 | 1012.9 |
| 20260906040505 | 26 | 91 | 3.2 | 6.4 | 0.00 | 0.56 | 0.00 | 78 | 1013.0 |
| 20260906040009 | 26 | 71 | 0.0 | 4.8 | 0.00 | 0.56 | 0.00 | 77 | 1012.9 |
| 20260906035508 | 26 | 91 | 0.0 | 4.8 | 0.00 | 0.56 | 0.56 | 77 | 1013.0 |
| 20260906035008 | 26 | 78 | 1.6 | 3.2 | 0.00 | 0.56 | 0.56 | 77 | 1012.9 |
| 20260906034526 | 26 | 51 | 0.0 | 6.4 | 0.00 | 0.56 | 0.56 | 77 | 1012.9 |
| 20260906034007 | 26 | 48 | 0.0 | 12.9 | 0.00 | 0.56 | 0.56 | 77 | 1012.9 |
| 20260906033510 | 26 | 76 | 8.0 | 12.9 | 0.00 | 0.56 | 0.56 | 77 | 1012.8 |
| 20260906033026 | 26 | 26 | 0.0 | 3.2 | 0.00 | 0.56 | 0.56 | 77 | 1012.6 |
| 20260906032513 | 26 | 26 | 0.0 | 3.2 | 0.00 | 0.56 | 0.56 | 77 | 1012.5 |
| 20260906032015 | 26 | 26 | 0.0 | 0.0 | 0.00 | 0.56 | 0.56 | 77 | 1012.4 |
| 20260906031527 | 26 | 26 | 0.0 | 0.0 | 0.00 | 0.56 | 0.56 | 77 | 1012.4 |
| 20260906031017 | 26 | 26 | 0.0 | 0.0 | 0.00 | 0.56 | 0.56 | 76 | 1012.4 |
| 20260906030517 | 26 | 26 | 0.0 | 0.0 | 0.00 | 0.56 | 0.56 | 76 | 1012.4 |
| 20260906030030 | 26 | 26 | 0.0 | 0.0 | 0.00 | 0.56 | 0.56 | 75 | 1012.4 |
| 20260906025504 | 26 | 26 | 0.0 | 0.0 | 0.00 | 0.56 | 0.56 | 75 | 1012.5 |
| 20260906025006 | 26 | 26 | 0.0 | 0.0 | 0.00 | 0.56 | 0.56 | 75 | 1012.5 |
| 20260906024508 | 26 | 26 | 0.0 | 0.0 | 0.00 | 0.56 | 0.56 | 75 | 1012.5 |
| 20260906024008 | 26 | 26 | 0.0 | 0.0 | 0.00 | 0.56 | 0.56 | 74 | 1012.5 |
| 20260906023508 | 26 | 26 | 0.0 | 0.0 | 0.00 | 0.56 | 0.56 | 74 | 1012.6 |
| 20260906023016 | 26 | 26 | 0.0 | 0.0 | 0.00 | 0.56 | 0.56 | 73 | 1012.7 |
| 20260906022511 | 26 | 26 | 0.0 | 0.0 | 0.00 | 0.56 | 0.56 | 73 | 1012.6 |
| 20260906022014 | 26 | 26 | 0.0 | 0.0 | 0.00 | 0.56 | 0.56 | 72 | 1012.7 |
| 20260906021524 | 26 | 26 | 0.0 | 0.0 | 0.00 | 0.56 | 0.56 | 71 | 1012.5 |
| 20260906021014 | 27 | 61 | 0.0 | 0.0 | 0.00 | 0.56 | 0.56 | 71 | 1012.4 |
| 20260906020516 | 27 | 61 | 0.0 | 0.0 | 0.00 | 0.56 | 0.56 | 70 | 1012.2 |
| 20260906020027 | 27 | 61 | 0.0 | 1.6 | 0.00 | 0.56 | 0.56 | 70 | 1012.1 |
| 20260906015518 | 27 | 61 | 0.0 | 3.2 | 0.00 | 0.56 | 0.56 | 70 | 1012.1 |
| 20260906015018 | 27 | 61 | 0.0 | 4.8 | 0.00 | 0.56 | 0.56 | 70 | 1012.1 |
| 20260906014548 | 27 | 73 | 1.6 | 4.8 | 0.00 | 0.56 | 0.56 | 69 | 1012.1 |
| 20260906014011 | 27 | 86 | 0.0 | 3.2 | 0.00 | 0.56 | 0.56 | 69 | 1012.0 |
| 20260906013507 | 27 | 79 | 0.0 | 3.2 | 0.00 | 0.56 | 0.56 | 69 | 1011.9 |
| 20260906013016 | 27 | 79 | 0.0 | 0.0 | 0.00 | 0.56 | 0.56 | 68 | 1011.9 |
| 20260906012510 | 27 | 79 | 0.0 | 0.0 | 0.00 | 0.56 | 0.56 | 67 | 1011.7 |
| 20260906012011 | 27 | 79 | 0.0 | 1.6 | 0.00 | 0.56 | 0.56 | 66 | 1011.7 |
| 20260906011532 | 27 | 79 | 0.0 | 1.6 | 0.00 | 0.56 | 0.56 | 66 | 1011.6 |
| 20260906011013 | 28 | 79 | 0.0 | 3.2 | 0.00 | 0.56 | 0.56 | 67 | 1011.5 |
| 20260906010514 | 28 | 79 | 0.0 | 3.2 | 0.00 | 0.56 | 0.56 | 65 | 1011.6 |
| 20260906010026 | 28 | 191 | 0.0 | 3.2 | 0.00 | 0.56 | 0.56 | 65 | 1011.6 |
| 20260906005515 | 28 | 202 | 0.0 | 3.2 | 0.00 | 0.56 | 0.56 | 64 | 1011.7 |
| 20260906005021 | 28 | 206 | 0.0 | 1.6 | 0.00 | 0.56 | 0.56 | 64 | 1011.6 |
| 20260906004537 | 28 | 210 | 0.0 | 4.8 | 0.00 | 0.56 | 0.56 | 63 | 1011.6 |
| 20260906004015 | 28 | 210 | 0.0 | 4.8 | 0.00 | 0.56 | 0.56 | 63 | 1011.7 |
| 20260906003519 | 29 | 185 | 0.0 | 4.8 | 0.00 | 0.56 | 0.56 | 61 | 1011.8 |
| 20260906003047 | 29 | 181 | 1.6 | 4.8 | 0.00 | 0.56 | 0.56 | 61 | 1011.7 |
| 20260906002507 | 29 | 192 | 0.0 | 4.8 | 0.00 | 0.56 | 0.56 | 61 | 1011.7 |
| 20260906002010 | 29 | 215 | 0.0 | 4.8 | 0.00 | 0.56 | 0.56 | 61 | 1011.9 |
| 20260906001518 | 29 | 198 | 0.0 | 4.8 | 0.00 | 0.56 | 0.56 | 61 | 1011.9 |
| 20260906001011 | 30 | 202 | 0.0 | 4.8 | 0.00 | 0.56 | 0.56 | 61 | 1012.0 |
| 20260906000515 | 30 | 196 | 0.0 | 4.8 | 0.00 | 0.56 | 0.56 | 62 | 1012.0 |
| 20260906000024 | 30 | 207 | 1.6 | 4.8 | 0.00 | 0.56 | 0.56 | 61 | 1012.1 |
| 20260905235515 | 30 | 227 | 0.0 | 3.2 | 0.00 | 0.56 | 0.56 | 60 | 1012.1 |
| 20260905235017 | 30 | 198 | 0.0 | 4.8 | 0.00 | 0.56 | 0.56 | 60 | 1012.2 |
| 20260905234530 | 31 | 199 | 0.0 | 8.0 | 0.00 | 0.56 | 0.56 | 60 | 1012.3 |
| 20260905234014 | 31 | 230 | 1.6 | 9.7 | 0.00 | 0.56 | 0.56 | 57 | 1012.4 |
| 20260905233518 | 31 | 182 | 1.6 | 9.7 | 0.00 | 0.56 | 0.56 | 57 | 1012.4 |
| 20260905233032 | 32 | 234 | 4.8 | 9.7 | 0.00 | 0.56 | 0.56 | 57 | 1012.3 |
| 20260905232516 | 32 | 115 | 0.0 | 9.7 | 0.00 | 0.56 | 0.56 | 59 | 1012.1 |
| 20260905232017 | 32 | 88 | 3.2 | 9.7 | 0.00 | 0.56 | 0.56 | 58 | 1012.2 |
| 20260905231538 | 32 | 66 | 3.2 | 6.4 | 0.00 | 0.56 | 0.56 | 57 | 1012.2 |
| 20260905231011 | 32 | 123 | 0.0 | 11.3 | 0.00 | 0.56 | 0.56 | 55 | 1012.2 |
| 20260905230511 | 32 | 74 | 1.6 | 16.1 | 0.00 | 0.56 | 0.56 | 55 | 1012.1 |
| 20260905230022 | 33 | 42 | 4.8 | 16.1 | 0.00 | 0.56 | 0.56 | 54 | 1012.0 |
| 20260905225513 | 33 | 96 | 4.8 | 12.9 | 0.00 | 0.56 | 0.56 | 53 | 1011.9 |
| 20260905225005 | 33 | 74 | 1.6 | 6.4 | 0.00 | 0.56 | 0.56 | 54 | 1011.8 |
| 20260905224507 | 33 | 282 | 0.0 | 3.2 | 0.00 | 0.56 | 0.56 | 54 | 1011.8 |
| 20260905224003 | 33 | 248 | 0.0 | 4.8 | 0.00 | 0.56 | 0.56 | 53 | 1011.7 |
| 20260905223502 | 33 | 279 | 0.0 | 6.4 | 0.00 | 0.56 | 0.56 | 51 | 1011.6 |
| 20260905223005 | 33 | 272 | 1.6 | 9.7 | 0.00 | 0.56 | 0.56 | 50 | 1011.5 |
| 20260905222504 | 33 | 273 | 0.0 | 9.7 | 0.00 | 0.56 | 0.56 | 52 | 1011.5 |
| 20260905222007 | 33 | 32 | 0.0 | 6.4 | 0.00 | 0.56 | 0.56 | 51 | 1011.6 |
| 20260905221511 | 33 | 72 | 0.0 | 4.8 | 0.00 | 0.56 | 0.56 | 52 | 1011.7 |
| 20260905221008 | 33 | 293 | 0.0 | 6.4 | 0.00 | 0.56 | 0.56 | 52 | 1011.6 |
| 20260905220510 | 33 | 194 | 3.2 | 6.4 | 0.00 | 0.56 | 0.56 | 51 | 1011.6 |
| 20260905220021 | 33 | 290 | 0.0 | 6.4 | 0.00 | 0.56 | 0.56 | 51 | 1011.7 |
| 20260905215513 | 33 | 246 | 3.2 | 6.4 | 0.00 | 0.56 | 0.56 | 52 | 1011.7 |
| 20260905215010 | 33 | 69 | 0.0 | 4.8 | 0.00 | 0.56 | 0.56 | 51 | 1011.8 |
| 20260905214524 | 34 | 143 | 0.0 | 4.8 | 0.00 | 0.56 | 0.56 | 53 | 1011.8 |
| 20260905214014 | 34 | 306 | 1.6 | 11.3 | 0.00 | 0.56 | 0.56 | 50 | 1011.9 |
| 20260905213503 | 34 | 292 | 4.8 | 11.3 | 0.00 | 0.56 | 0.56 | 51 | 1012.0 |
| 20260905213005 | 34 | 304 | 3.2 | 11.3 | 0.00 | 0.56 | 0.56 | 52 | 1012.0 |
| 20260905212504 | 34 | 313 | 3.2 | 14.5 | 0.00 | 0.56 | 0.56 | 50 | 1012.0 |
| 20260905212003 | 34 | 290 | 4.8 | 14.5 | 0.00 | 0.56 | 0.56 | 50 | 1012.0 |
| 20260905211508 | 34 | 278 | 4.8 | 14.5 | 0.00 | 0.56 | 0.56 | 50 | 1011.9 |
| 20260905211011 | 34 | 78 | 0.0 | 6.4 | 0.00 | 0.56 | 0.56 | 48 | 1011.9 |
| 20260905210508 | 34 | 309 | 1.6 | 12.9 | 0.00 | 0.56 | 0.56 | 48 | 1012.0 |
| 20260905210015 | 35 | 287 | 3.2 | 14.5 | 0.00 | 0.56 | 0.56 | 48 | 1012.1 |
| 20260905205512 | 35 | 279 | 4.8 | 14.5 | 0.00 | 0.56 | 0.56 | 48 | 1012.1 |
| 20260905205013 | 35 | 252 | 4.8 | 11.3 | 0.00 | 0.56 | 0.56 | 46 | 1012.1 |
| 20260905204520 | 36 | 57 | 3.2 | 12.9 | 0.00 | 0.56 | 0.56 | 46 | 1012.2 |
| 20260905204013 | 35 | 302 | 1.6 | 12.9 | 0.00 | 0.56 | 0.56 | 48 | 1012.2 |
| 20260905203514 | 35 | 289 | 1.6 | 9.7 | 0.00 | 0.56 | 0.56 | 49 | 1012.2 |
| 20260905203025 | 35 | 110 | 3.2 | 9.7 | 0.00 | 0.56 | 0.56 | 47 | 1012.3 |
| 20260905202515 | 35 | 30 | 0.0 | 9.7 | 0.00 | 0.56 | 0.56 | 47 | 1012.4 |
| 20260905202003 | 35 | 82 | 1.6 | 14.5 | 0.00 | 0.56 | 0.56 | 45 | 1012.5 |
| 20260905201505 | 35 | 300 | 3.2 | 14.5 | 0.00 | 0.56 | 0.56 | 47 | 1012.6 |
| 20260905201003 | 35 | 265 | 6.4 | 14.5 | 0.00 | 0.56 | 0.56 | 46 | 1012.6 |
| 20260905200507 | 35 | 284 | 1.6 | 9.7 | 0.00 | 0.56 | 0.56 | 48 | 1012.7 |
| 20260905200013 | 35 | 130 | 1.6 | 9.7 | 0.00 | 0.56 | 0.56 | 48 | 1012.7 |
| 20260905195509 | 35 | 128 | 1.6 | 11.3 | 0.00 | 0.56 | 0.56 | 47 | 1012.7 |
| 20260905195009 | 35 | 304 | 3.2 | 11.3 | 0.00 | 0.56 | 0.56 | 46 | 1012.9 |
| 20260905194517 | 36 | 92 | 4.8 | 16.1 | 0.00 | 0.56 | 0.56 | 45 | 1012.9 |
| 20260905194011 | 36 | 301 | 4.8 | 16.1 | 0.00 | 0.56 | 0.56 | 45 | 1013.1 |
| 20260905193516 | 35 | 282 | 3.2 | 11.3 | 0.00 | 0.56 | 0.56 | 46 | 1013.1 |
| 20260905193020 | 35 | 284 | 3.2 | 11.3 | 0.00 | 0.56 | 0.56 | 46 | 1013.2 |
| 20260905192518 | 35 | 97 | 3.2 | 8.0 | 0.00 | 0.56 | 0.56 | 47 | 1013.3 |
| 20260905192015 | 35 | 252 | 4.8 | 8.0 | 0.00 | 0.56 | 0.56 | 46 | 1013.2 |
| 20260905191529 | 35 | 344 | 3.2 | 6.4 | 0.00 | 0.56 | 0.56 | 49 | 1013.3 |
| 20260905191017 | 35 | 200 | 0.0 | 4.8 | 0.00 | 0.56 | 0.56 | 47 | 1013.4 |
| 20260905190517 | 35 | 215 | 0.0 | 9.7 | 0.00 | 0.56 | 0.56 | 47 | 1013.5 |
| 20260905190010 | 35 | 29 | 0.0 | 11.3 | 0.00 | 0.56 | 0.56 | 47 | 1013.6 |
| 20260905185507 | 35 | 263 | 3.2 | 11.3 | 0.00 | 0.56 | 0.56 | 48 | 1013.6 |
| 20260905185009 | 34 | 301 | 4.8 | 11.3 | 0.00 | 0.56 | 0.56 | 47 | 1013.7 |
| 20260905184513 | 34 | 182 | 4.8 | 11.3 | 0.00 | 0.56 | 0.56 | 50 | 1013.7 |
| 20260905184010 | 33 | 152 | 1.6 | 11.3 | 0.00 | 0.56 | 0.56 | 47 | 1013.7 |
| 20260905183512 | 33 | 277 | 4.8 | 11.3 | 0.00 | 0.56 | 0.56 | 49 | 1013.7 |
| 20260905183019 | 33 | 225 | 3.2 | 9.7 | 0.00 | 0.56 | 0.56 | 49 | 1014.0 |
| 20260905182514 | 34 | 138 | 1.6 | 9.7 | 0.00 | 0.56 | 0.56 | 48 | 1014.0 |
| 20260905182012 | 33 | 277 | 3.2 | 9.7 | 0.00 | 0.56 | 0.56 | 50 | 1014.1 |
| 20260905181534 | 33 | 248 | 0.0 | 9.7 | 0.00 | 0.56 | 0.56 | 51 | 1014.2 |
| 20260905181015 | 33 | 211 | 4.8 | 9.7 | 0.00 | 0.56 | 0.56 | 54 | 1014.2 |
| 20260905180516 | 33 | 115 | 3.2 | 6.4 | 0.00 | 0.56 | 0.56 | 52 | 1014.2 |
| 20260905180028 | 33 | 202 | 3.2 | 9.7 | 0.00 | 0.56 | 0.56 | 50 | 1014.3 |
| 20260905175519 | 33 | 31 | 3.2 | 9.7 | 0.00 | 0.56 | 0.56 | 51 | 1014.3 |
| 20260905175018 | 33 | 285 | 0.0 | 6.4 | 0.00 | 0.56 | 0.56 | 50 | 1014.4 |
| 20260905174512 | 32 | 228 | 1.6 | 6.4 | 0.00 | 0.56 | 0.56 | 54 | 1014.4 |
| 20260905174006 | 32 | 280 | 1.6 | 12.9 | 0.00 | 0.56 | 0.56 | 50 | 1014.4 |
| 20260905173509 | 32 | 211 | 3.2 | 12.9 | 0.00 | 0.56 | 0.56 | 56 | 1014.4 |
| 20260905173016 | 32 | 198 | 1.6 | 12.9 | 0.00 | 0.56 | 0.56 | 54 | 1014.5 |
| 20260905172512 | 32 | 111 | 3.2 | 12.9 | 0.00 | 0.56 | 0.56 | 54 | 1014.5 |
| 20260905172016 | 32 | 277 | 4.8 | 11.3 | 0.00 | 0.56 | 0.56 | 57 | 1014.4 |
| 20260905171526 | 31 | 96 | 6.4 | 11.3 | 0.00 | 0.56 | 0.56 | 54 | 1014.5 |
| 20260905171014 | 31 | 81 | 1.6 | 9.7 | 0.00 | 0.56 | 0.56 | 56 | 1014.5 |
| 20260905170515 | 31 | 26 | 1.6 | 8.0 | 0.00 | 0.56 | 0.56 | 55 | 1014.6 |
| 20260905170027 | 31 | 288 | 3.2 | 8.0 | 0.00 | 0.56 | 0.56 | 56 | 1014.8 |
| 20260905165520 | 31 | 292 | 1.6 | 11.3 | 0.00 | 0.56 | 0.56 | 56 | 1014.9 |
| 20260905165016 | 31 | 81 | 4.8 | 12.9 | 0.00 | 0.56 | 0.56 | 55 | 1015.1 |
| 20260905164532 | 31 | 75 | 3.2 | 12.9 | 0.00 | 0.56 | 0.56 | 57 | 1015.3 |
| 20260905164018 | 31 | 328 | 0.0 | 8.0 | 0.00 | 0.56 | 0.56 | 58 | 1015.4 |
| 20260905163519 | 31 | 232 | 1.6 | 8.0 | 0.00 | 0.56 | 0.56 | 58 | 1015.3 |
| 20260905163035 | 31 | 233 | 1.6 | 6.4 | 0.00 | 0.56 | 0.56 | 62 | 1015.4 |
| 20260905162511 | 30 | 211 | 1.6 | 9.7 | 0.00 | 0.56 | 0.56 | 58 | 1015.4 |
| 20260905162011 | 30 | 37 | 1.6 | 9.7 | 0.00 | 0.56 | 0.56 | 58 | 1015.3 |
| 20260905161520 | 30 | 138 | 1.6 | 8.0 | 0.00 | 0.56 | 0.56 | 61 | 1015.3 |
| 20260905161014 | 30 | 301 | 1.6 | 8.0 | 0.00 | 0.56 | 0.56 | 60 | 1015.2 |
| 20260905160515 | 30 | 86 | 0.0 | 9.7 | 0.00 | 0.56 | 0.56 | 62 | 1015.2 |
| 20260905160039 | 29 | 228 | 4.8 | 9.7 | 0.00 | 0.56 | 0.56 | 62 | 1015.3 |
| 20260905155517 | 29 | 146 | 3.2 | 9.7 | 0.00 | 0.56 | 0.56 | 63 | 1015.3 |
| 20260905155014 | 29 | 119 | 1.6 | 12.9 | 0.00 | 0.56 | 0.56 | 64 | 1015.3 |
| 20260905154530 | 28 | 155 | 1.6 | 12.9 | 0.00 | 0.56 | 0.56 | 63 | 1015.4 |
| 20260905154018 | 28 | 178 | 4.8 | 9.7 | 0.00 | 0.56 | 0.56 | 66 | 1015.5 |
| 20260905153517 | 28 | 206 | 3.2 | 9.7 | 0.00 | 0.56 | 0.56 | 67 | 1015.6 |
| 20260905153038 | 28 | 339 | 1.6 | 8.0 | 0.00 | 0.56 | 0.56 | 67 | 1015.4 |
| 20260905152519 | 27 | 63 | 3.2 | 9.7 | 0.00 | 0.56 | 0.56 | 68 | 1015.3 |
| 20260905152019 | 27 | 71 | 1.6 | 11.3 | 0.00 | 0.56 | 0.56 | 70 | 1015.3 |
| 20260905151533 | 27 | 176 | 3.2 | 11.3 | 0.00 | 0.56 | 0.56 | 73 | 1015.4 |
| 20260905151013 | 27 | 41 | 1.6 | 8.0 | 0.00 | 0.56 | 0.56 | 70 | 1015.3 |
| 20260905150510 | 26 | 54 | 0.0 | 14.5 | 0.00 | 0.56 | 0.56 | 72 | 1015.3 |
| 20260905150023 | 26 | 74 | 4.8 | 14.5 | 0.00 | 0.56 | 0.56 | 72 | 1015.5 |
| 20260905145516 | 26 | 83 | 1.6 | 12.9 | 0.00 | 0.56 | 0.56 | 75 | 1015.6 |
| 20260905145016 | 26 | 204 | 3.2 | 12.9 | 0.00 | 0.56 | 0.56 | 76 | 1015.7 |
| 20260905144534 | 26 | 69 | 1.6 | 16.1 | 0.00 | 0.56 | 0.56 | 76 | 1015.7 |
| 20260905144016 | 25 | 69 | 3.2 | 16.1 | 0.00 | 0.56 | 0.56 | 75 | 1015.8 |
| 20260905143516 | 25 | 209 | 3.2 | 16.1 | 0.00 | 0.56 | 0.56 | 76 | 1015.8 |
| 20260905143047 | 25 | 88 | 4.8 | 16.1 | 0.00 | 0.56 | 0.56 | 76 | 1015.8 |
| 20260905142517 | 25 | 76 | 1.6 | 14.5 | 0.00 | 0.56 | 0.56 | 78 | 1015.7 |
| 20260905142018 | 25 | 94 | 3.2 | 14.5 | 0.00 | 0.56 | 0.56 | 78 | 1015.8 |
| 20260905141534 | 25 | 100 | 4.8 | 14.5 | 0.00 | 0.56 | 0.56 | 78 | 1015.8 |
| 20260905141017 | 24 | 66 | 3.2 | 20.9 | 0.00 | 0.56 | 0.56 | 82 | 1015.8 |
| 20260905140504 | 24 | 51 | 6.4 | 20.9 | 0.00 | 0.56 | 0.56 | 80 | 1015.8 |
| 20260905140003 | 24 | 101 | 11.3 | 20.9 | 0.00 | 0.56 | 0.56 | 80 | 1015.9 |
| 20260905135504 | 24 | 87 | 4.8 | 14.5 | 0.00 | 0.56 | 0.56 | 81 | 1016.1 |
| 20260905135004 | 24 | 72 | 4.8 | 14.5 | 0.00 | 0.56 | 0.56 | 81 | 1016.3 |
| 20260905134503 | 25 | 77 | 6.4 | 12.9 | 0.00 | 0.56 | 0.56 | 82 | 1016.1 |
| 20260905134003 | 24 | 102 | 6.4 | 14.5 | 0.00 | 0.56 | 0.56 | 84 | 1016.2 |
| 20260905133503 | 24 | 67 | 8.0 | 19.3 | 0.00 | 0.56 | 0.56 | 83 | 1016.4 |
| 20260905133004 | 24 | 67 | 4.8 | 19.3 | 0.00 | 0.56 | 0.56 | 84 | 1016.3 |
| 20260905132503 | 23 | 90 | 11.3 | 19.3 | 0.00 | 0.56 | 0.56 | 85 | 1016.3 |
| 20260905132003 | 23 | 74 | 9.7 | 27.4 | 0.00 | 0.56 | 0.56 | 85 | 1016.3 |
| 20260905131504 | 23 | 60 | 6.4 | 27.4 | 0.00 | 0.56 | 0.56 | 87 | 1016.2 |
| 20260905131004 | 23 | 70 | 9.7 | 22.5 | 0.00 | 0.56 | 0.56 | 88 | 1016.2 |
| 20260905130504 | 23 | 84 | 11.3 | 20.9 | 0.00 | 0.56 | 0.56 | 88 | 1016.1 |
| 20260905130003 | 23 | 83 | 9.7 | 19.3 | 0.00 | 0.56 | 0.56 | 89 | 1016.2 |
| 20260905125505 | 23 | 97 | 9.7 | 19.3 | 0.00 | 0.56 | 0.56 | 89 | 1016.4 |
| 20260905125003 | 23 | 87 | 4.8 | 17.7 | 0.00 | 0.56 | 0.56 | 89 | 1016.6 |
| 20260905124505 | 23 | 114 | 6.4 | 19.3 | 0.00 | 0.56 | 0.56 | 89 | 1016.5 |
| 20260905124003 | 23 | 109 | 4.8 | 19.3 | 0.00 | 0.56 | 0.56 | 89 | 1016.5 |
| 20260905123503 | 22 | 93 | 6.4 | 19.3 | 0.00 | 0.56 | 0.56 | 90 | 1016.3 |
| 20260905123004 | 22 | 76 | 8.0 | 19.3 | 0.00 | 0.56 | 0.56 | 90 | 1016.2 |
| 20260905122506 | 22 | 71 | 6.4 | 14.5 | 0.00 | 0.56 | 0.56 | 91 | 1015.6 |
| 20260905122004 | 22 | 214 | 0.0 | 4.8 | 0.00 | 0.56 | 0.56 | 91 | 1015.5 |
| 20260905121504 | 22 | 205 | 0.0 | 3.2 | 0.00 | 0.56 | 0.56 | 91 | 1015.4 |
| 20260905121005 | 22 | 286 | 0.0 | 3.2 | 0.00 | 0.56 | 0.56 | 91 | 1015.4 |
| 20260905120503 | 22 | 300 | 0.0 | 4.8 | 0.00 | 0.56 | 0.56 | 91 | 1015.3 |
| 20260905120004 | 22 | 19 | 0.0 | 14.5 | 0.00 | 0.56 | 0.56 | 91 | 1015.3 |
| 20260905115504 | 22 | 130 | 0.0 | 14.5 | 0.00 | 0.56 | 0.56 | 91 | 1015.3 |
| 20260905115004 | 22 | 70 | 1.6 | 9.7 | 0.00 | 0.56 | 0.56 | 92 | 1015.3 |
| 20260905114506 | 22 | 86 | 3.2 | 11.3 | 0.00 | 0.56 | 0.56 | 91 | 1015.4 |
| 20260905114003 | 22 | 67 | 1.6 | 12.9 | 0.00 | 0.56 | 0.56 | 91 | 1015.3 |
| 20260905113504 | 22 | 80 | 4.8 | 12.9 | 0.00 | 0.56 | 0.56 | 91 | 1015.3 |
| 20260905113004 | 22 | 90 | 3.2 | 9.7 | 0.00 | 0.56 | 0.56 | 91 | 1015.0 |
| 20260905112504 | 22 | 58 | 4.8 | 9.7 | 0.00 | 0.56 | 0.56 | 91 | 1014.7 |
| 20260905112003 | 23 | 94 | 1.6 | 8.0 | 0.00 | 0.56 | 0.56 | 91 | 1014.7 |
| 20260905111504 | 23 | 69 | 0.0 | 14.5 | 0.00 | 0.56 | 0.56 | 91 | 1014.7 |
| 20260905111004 | 23 | 71 | 4.8 | 14.5 | 0.00 | 0.56 | 0.56 | 91 | 1014.9 |
| 20260905110503 | 23 | 71 | 1.6 | 9.7 | 0.00 | 0.56 | 0.56 | 92 | 1014.8 |
| 20260905110004 | 23 | 75 | 3.2 | 9.7 | 0.00 | 0.56 | 0.56 | 92 | 1014.9 |
| 20260905105506 | 23 | 192 | 1.6 | 9.7 | 0.00 | 0.56 | 0.56 | 92 | 1014.8 |
| 20260905105005 | 23 | 94 | 3.2 | 12.9 | 0.00 | 0.56 | 0.56 | 92 | 1014.9 |
| 20260905104510 | 23 | 80 | 4.8 | 16.1 | 0.00 | 0.56 | 0.56 | 93 | 1014.9 |
| 20260905104005 | 23 | 121 | 8.0 | 16.1 | 0.00 | 0.56 | 0.56 | 93 | 1014.5 |
| 20260905103503 | 23 | 71 | 1.6 | 4.8 | 0.00 | 0.56 | 0.56 | 94 | 1014.1 |
| 20260905103013 | 23 | 132 | 0.0 | 1.6 | 0.00 | 0.56 | 0.56 | 94 | 1014.0 |
| 20260905102503 | 23 | 132 | 0.0 | 1.6 | 0.00 | 0.56 | 0.56 | 94 | 1013.9 |
| 20260905102004 | 23 | 132 | 0.0 | 1.6 | 0.00 | 0.56 | 0.56 | 93 | 1013.8 |
| 20260905101505 | 23 | 123 | 0.0 | 1.6 | 0.00 | 0.56 | 0.56 | 93 | 1013.8 |
| 20260905101003 | 23 | 119 | 0.0 | 1.6 | 0.00 | 0.56 | 0.56 | 93 | 1014.0 |
| 20260905100506 | 23 | 119 | 0.0 | 1.6 | 0.03 | 0.56 | 0.56 | 93 | 1014.0 |
| 20260905100017 | 23 | 119 | 0.0 | 1.6 | 0.03 | 0.56 | 0.56 | 93 | 1014.0 |